Craig, CO

2:19 PM MDT on July 27, 2017 (GMT -0600)
Craig-Moffat

Weather History for KCAG - June, 2013

Change the Weather History Date:

Saturday, June 29, 2013

  Actual Average Record
Temperature  
Mean Temperature 74 °F 63 °F  
Max Temperature 95 °F 84 °F 95 °F (2013)
Min Temperature 53 °F 43 °F 37 °F (1997)
Degree Days  
Heating Degree Days 0 3  
Month to date heating degree days 88 175  
Since 1 June heating degree days 88 175  
Since 1 July heating degree days 8587 8634  
Cooling Degree Days 9 1  
Month to date cooling degree days 38 6  
Year to date cooling degree days 38 6  
Since 1 June cooling degree days 38 6  
Growing Degree Days 25 (Base 50)    
Moisture  
Dew Point 42 °F    
Average Humidity 41    
Maximum Humidity 71    
Minimum Humidity 10    
Precipitation  
Precipitation T in 0.02 in 0.15 in (2004)
Month to date precipitation T 1.29  
Year to date precipitation 5.25 7.48  
Sea Level Pressure  
Sea Level Pressure 30.01 in    
Wind  
Wind Speed 7 mph (NNW)    
Max Wind Speed 36 mph    
Max Gust Speed 51 mph    
Visibility 10 miles    
Events Rain , Thunderstorm    
T = Trace of Precipitation, MM = Missing Value Source: NWS Daily Summary

Daily Weather History Graph

Daily Weather History Graph

Search for Another Location

Airport or City:

Trip Planner

Search our weather history database for the weather conditions in past years. The results will help you decide how hot, cold, wet, or windy it might be!

Date:

Astronomy

Jun. 29, 2013 Rise Set
Actual Time 5:42 AM MDT 8:44 PM MDT
Civil Twilight 5:09 AM MDT 9:17 PM MDT
Nautical Twilight 4:27 AM MDT 9:59 PM MDT
Astronomical Twilight 3:37 AM MDT 10:48 PM MDT
Moon 12:13 AM MDT (6/29) 12:59 PM MDT (6/29)
Length of Visible Light 16h 08m
Length of Day
15h 01m
Waning Gibbous, 55% of the Moon is Illuminated
Jun 29
Waning Gibbous
Jun 29
Last Quarter
Jul 8
New
Jul 15
First Quarter
Jul 22
Full

Hourly Weather History & Observations

Time (MDT) Temp. Dew Point Humidity Pressure Visibility Wind Dir Wind Speed Gust Speed Precip Events Conditions
12:53 AM 63.0 °F 48.0 °F 58% 29.98 in 10.0 mi Calm Calm - N/A   Clear
1:53 AM 60.1 °F 46.9 °F 62% 29.98 in 10.0 mi West 3.5 mph - N/A   Clear
2:53 AM 63.0 °F 45.0 °F 52% 29.97 in 10.0 mi SW 3.5 mph - N/A   Clear
3:53 AM 57.0 °F 45.0 °F 64% 29.99 in 10.0 mi West 3.5 mph - N/A   Clear
4:53 AM 53.1 °F 44.1 °F 71% 30.03 in 10.0 mi SW 3.5 mph - N/A   Clear
5:53 AM 55.0 °F 44.1 °F 67% 30.03 in 10.0 mi Calm Calm - N/A   Clear
6:53 AM 60.1 °F 46.9 °F 62% 30.04 in 10.0 mi Calm Calm - N/A   Clear
7:53 AM 64.0 °F 46.0 °F 52% 30.07 in 10.0 mi Calm Calm - N/A   Clear
8:53 AM 69.1 °F 48.0 °F 47% 30.07 in 10.0 mi Calm Calm - N/A   Clear
9:53 AM 75.0 °F 46.0 °F 36% 30.05 in 10.0 mi Calm Calm - N/A   Clear
10:53 AM 82.0 °F 43.0 °F 25% 30.03 in 10.0 mi NNW 4.6 mph - N/A   Clear
11:53 AM 87.1 °F 37.9 °F 18% 29.99 in 10.0 mi NNW 5.8 mph - N/A   Clear
12:53 PM 91.0 °F 39.9 °F 17% 29.97 in 10.0 mi NNE 3.5 mph - N/A   Clear
1:53 PM 91.0 °F 37.9 °F 15% 29.95 in 10.0 mi Calm Calm - N/A   Clear
2:53 PM 91.0 °F 39.0 °F 16% 29.91 in 10.0 mi NNE 8.1 mph - N/A   Mostly Cloudy
3:53 PM 91.9 °F 34.0 °F 13% 29.91 in 10.0 mi Variable 6.9 mph - N/A   Clear
4:53 PM 93.0 °F 28.9 °F 10% 29.91 in 10.0 mi NNE 4.6 mph - N/A   Clear
5:53 PM 91.9 °F 33.1 °F 12% 29.89 in 10.0 mi NE 6.9 mph - N/A   Clear
6:53 PM 90.0 °F 30.0 °F 12% 29.88 in 10.0 mi Variable 3.5 mph - N/A   Clear
7:41 PM 78.8 °F 39.2 °F 24% 30.19 in 6.0 mi NNW 19.6 mph 46.0 mph N/A   Haze
7:46 PM 77.0 °F 41.0 °F 28% 30.18 in 4.0 mi NNW 35.7 mph 50.6 mph N/A   Haze
7:53 PM 75.0 °F 43.0 °F 32% 29.97 in 5.0 mi NW 23.0 mph 50.6 mph N/A   Haze
8:06 PM 73.4 °F 42.8 °F 33% 30.21 in 8.0 mi NNW 15.0 mph 47.2 mph 0.00 in Rain , Thunderstorm Light Rain
8:25 PM 73.4 °F 44.6 °F 36% 30.21 in 10.0 mi NNW 15.0 mph 26.5 mph 0.00 in Rain Light Rain
8:53 PM 73.9 °F 44.1 °F 34% 29.99 in 10.0 mi NNE 20.7 mph 35.7 mph 0.00 in Rain Light Rain
9:53 PM 73.9 °F 43.0 °F 33% 30.00 in 10.0 mi North 18.4 mph 31.1 mph 0.00 in Rain Light Rain
10:49 PM 71.6 °F 42.8 °F 35% 30.21 in 10.0 mi ESE 20.7 mph 26.5 mph 0.00 in   Scattered Clouds
10:53 PM 73.0 °F 43.0 °F 34% 29.94 in 10.0 mi SE 20.7 mph 26.5 mph 0.00 in   Partly Cloudy
11:53 PM 69.1 °F 46.9 °F 45% 29.96 in 10.0 mi ENE 13.8 mph - N/A   Clear